Location: Feydey
(46.3431°N, 7.0106°E)
Time: 21:42:34
(UTC+00:00)

Cosmos 1603 - Pass Details

Date: 01 November 2021
Orbit: 829 x 861 km, 71.0° (Epoch: 27 November)

Event Time Altitude Azimuth Distance (km) Brightness Sun altitude
Rises 04:44:37 0° 339° (NNW) 3,447 6.6 -15.7°
Reaches altitude 10° 04:47:41 10° 355° (N) 2,509 6.1 -15.2°
Maximum altitude 04:52:05 22° 45° (NE) 1,797 5.9 -14.4°
Drops below altitude 10° 04:56:29 10° 95° (E) 2,498 7.6 -13.7°
Sets 04:59:31 0° 111° (ESE) 3,428 8.6 -13.2°
